JH1LWU-13 Weather Reports


time (UTC)temp
C
wind
direction
speed
KPH
gust
KPH
rain 1hr
cm
rain 24hr
cm
rain mn
cm
humidity
%
barometer
mb
20260510000826 22 112 1.6 4.8 0.00 0.00 0.00 24 1015.0
20260509233825 21 284 0.0 1.6 0.00 0.00 0.00 26 1017.0
20260509230824 19 79 0.0 0.0 0.00 0.00 0.00 30 1016.0
20260509223823 18 114 0.0 0.0 0.00 0.00 0.00 31 1017.0
20260509220822 17 41 1.6 3.2 0.00 0.00 0.00 31 1017.0
20260509213821 17 55 0.0 0.0 0.00 0.00 0.00 33 1017.0
20260509210820 16 217 0.0 1.6 0.00 0.00 0.00 36 1015.0
20260509203819 14 215 0.0 1.6 0.00 0.00 0.00 39 1018.0
20260509200818 13 297 0.0 0.0 0.00 0.00 0.00 41 1017.0
20260509193817 13 288 0.0 0.0 0.00 0.00 0.00 41 1015.0
20260509190816 13 288 0.0 0.0 0.00 0.00 0.00 42 1015.0
20260509183815 13 288 0.0 0.0 0.00 0.00 0.00 39 1014.0
20260509180814 14 290 0.0 0.0 0.00 0.00 0.00 38 1015.0
20260509173813 15 287 0.0 0.0 0.00 0.00 0.00 37 1013.0
20260509170812 15 292 0.0 0.0 0.00 0.00 0.00 37 1014.0
20260509163811 15 290 0.0 0.0 0.00 0.00 0.00 37 1014.0
20260509160810 15 288 0.0 0.0 0.00 0.00 0.00 36 1014.0
20260509153809 15 287 0.0 0.0 0.00 0.00 0.00 35 1014.0
20260509150808 15 290 0.0 0.0 0.00 0.00 0.00 34 1012.0
20260509143807 16 290 0.0 0.0 0.00 0.00 0.00 33 1013.0
20260509140806 16 287 0.0 0.0 0.00 0.00 0.00 33 1013.0
20260509133805 15 287 0.0 0.0 0.00 0.00 0.00 35 1012.0
20260509130804 16 285 0.0 0.0 0.00 0.00 0.00 32 1014.0
20260509123803 16 287 0.0 0.0 0.00 0.00 0.00 31 1012.0
20260509120802 17 288 0.0 0.0 0.00 0.00 0.00 29 1011.0
20260509113801 17 287 0.0 0.0 0.00 0.00 0.00 27 1012.0
20260509110800 18 287 0.0 0.0 0.00 0.00 0.00 24 1012.0
20260509103759 18 292 0.0 0.0 0.00 0.00 0.00 24 1012.0
20260509100758 19 304 0.0 0.0 0.00 0.00 0.00 23 1010.0
20260509093757 19 30 1.6 4.8 0.00 0.00 0.00 22 1011.0
20260509090756 20 205 4.8 6.4 0.00 0.00 0.00 22 1010.0
20260509083755 20 211 0.0 6.4 0.00 0.00 0.00 21 1010.0
20260509080754 21 202 0.0 4.8 0.00 0.00 0.00 22 1008.0
20260509073753 21 103 1.6 6.4 0.00 0.00 0.00 22 1008.0
20260509070752 22 267 3.2 6.4 0.00 0.00 0.00 22 1007.0
20260509063751 22 97 3.2 4.8 0.00 0.00 0.00 22 1008.0
20260509060750 21 294 4.8 8.0 0.00 0.00 0.00 23 1007.0
20260509053749 22 149 0.0 6.4 0.00 0.00 0.00 24 1007.0
20260509050748 22 35 0.0 8.0 0.00 0.00 0.00 24 1007.0
20260509043747 23 105 1.6 6.4 0.00 0.00 0.00 23 1008.0
20260509040746 22 56 1.6 11.3 0.00 0.00 0.00 24 1008.0
20260509033745 22 122 4.8 9.7 0.00 0.00 0.00 25 1008.0
20260509030744 23 353 1.6 8.0 0.00 0.00 0.00 25 1008.0
20260509023743 23 138 1.6 3.2 0.00 0.00 0.00 26 1007.0
20260509020742 22 228 6.4 6.4 0.00 0.00 0.00 25 1008.0
20260509013741 22 224 3.2 4.8 0.00 0.00 0.00 27 1008.0
20260509010740 22 248 1.6 6.4 0.00 0.00 0.00 28 1008.0
20260509003739 21 146 3.2 4.8 0.00 0.00 0.00 26 1007.0